Vorticity
nan nan nan nan nan nan nan nan nan nan nan nan nan nan nan nan nan nan nan nan nan nan nan nan nan nan nan nan nan nan nan nan nan nan nan nan nan nan nan nan nan nan nan nan nan nan nan nan nan nan nan nan nan nan nan nan nan nan nan nan nan nan nan nan nan nan nan nan nan nan nan nan nan nan nan nan nan nan nan nan nan nan nan nan nan nan nan nan nan nan nan nan nan nan nan nan nan nan nan nan nan nan nan
nan 5 5 5 4 4 5 5 5 5 6 5 5 5 5 4 4 5 5 5 5 5 5 5 4 4 4 4 4 5 6 7 7 8 8 8 8 8 8 7 5 4 3 2 2 2 5 10 11 10 7 8 8 7 5 5 6 8 9 8 5 3 2 6 9 10 10 9 8 7 7 8 8 8 7 7 6 7 12 11 8 6 7 9 11 15 21 24 23 21 19 16 17 19 20 18 15 13 14 14 11 9 nan
nan 5 6 6 5 5 5 5 5 5 5 5 5 5 5 5 5 5 6 5 5 5 4 4 4 4 4 5 5 6 6 7 7 8 8 8 9 9 8 7 5 4 3 2 3 6 11 15 11 5 6 7 8 8 8 6 5 5 6 6 4 4 2 4 6 7 8 8 8 8 8 9 9 8 8 7 7 7 10 7 5 3 3 5 7 11 18 23 23 22 19 17 18 18 16 14 11 10 11 10 8 6 nan
nan 6 6 6 5 5 5 5 5 5 4 4 4 5 5 6 6 6 5 5 5 5 5 4 4 4 4 5 6 6 7 7 7 8 8 8 9 9 8 6 5 4 3 2 5 11 17 17 9 4 5 5 6 6 6 6 5 5 5 4 2 2 4 4 4 5 6 7 8 9 9 10 10 8 7 6 5 5 7 5 4 3 3 2 4 7 13 18 18 17 13 12 12 12 10 9 8 6 6 6 6 5 nan
nan 6 6 6 6 5 5 5 5 4 4 4 4 5 6 6 6 6 5 5 5 5 5 5 4 5 5 6 7 7 7 7 7 8 8 8 8 8 7 6 5 3 3 3 6 11 14 12 6 4 3 4 4 4 5 5 6 6 6 4 1 2 6 6 5 5 5 6 7 8 8 9 8 7 6 5 5 4 5 5 5 5 5 3 3 4 7 10 11 11 9 7 6 5 5 5 5 6 5 5 5 5 nan
nan 6 6 6 5 5 5 5 4 4 4 4 5 6 7 6 6 5 5 5 5 5 5 5 5 5 6 7 7 7 7 7 7 8 8 8 8 8 7 5 4 3 3 3 6 10 14 15 9 5 4 5 5 5 4 6 6 7 6 4 0 1 6 8 6 5 6 7 7 7 7 7 7 6 5 4 4 3 3 4 5 6 6 4 3 3 4 5 6 7 7 6 5 4 4 4 5 5 5 5 5 5 nan
nan 5 5 5 5 5 5 4 4 5 5 6 6 7 7 6 5 5 5 5 6 5 5 5 5 6 7 8 8 8 7 7 7 8 8 8 8 8 6 5 3 3 3 4 6 10 15 16 11 6 6 5 5 6 6 6 7 7 7 3 -1 1 6 9 8 7 6 7 7 7 7 6 5 4 3 3 3 3 3 4 6 7 7 6 5 4 4 4 5 5 6 6 5 5 4 4 4 4 4 4 5 5 nan
nan 4 4 4 4 5 5 5 5 6 6 6 7 6 6 6 5 5 6 6 6 5 5 5 5 7 8 8 8 8 8 7 8 8 8 8 8 7 6 4 3 3 3 4 5 8 14 13 10 6 6 5 4 5 6 6 7 7 7 3 0 2 6 9 10 8 6 7 7 7 6 6 5 4 5 5 6 6 5 6 6 7 8 7 6 5 4 4 5 5 6 6 5 5 4 4 4 4 4 4 4 5 nan
nan 3 2 3 4 5 6 7 7 7 7 7 6 6 5 6 6 6 6 6 5 5 4 5 6 8 9 9 9 8 8 7 7 7 7 8 7 7 6 4 4 3 4 4 4 5 12 13 10 7 5 5 4 5 6 6 5 7 6 2 1 1 6 10 11 9 7 6 6 6 7 7 8 7 7 7 7 8 8 8 8 8 8 8 7 5 4 5 5 6 5 5 5 5 5 5 5 5 4 4 4 4 nan
nan 2 2 2 4 6 8 9 8 8 7 6 6 6 6 6 7 7 7 6 5 4 5 6 7 9 9 9 9 8 7 7 7 7 7 7 7 6 5 4 4 3 3 3 4 6 11 12 8 7 5 5 5 5 7 7 6 7 5 1 0 3 8 11 11 9 6 6 6 6 6 7 9 11 12 10 10 10 10 10 9 9 10 9 8 6 5 5 5 5 5 5 6 5 5 5 5 5 5 5 5 4 nan
nan 2 2 2 3 5 8 9 9 8 7 6 6 6 6 7 7 8 8 6 5 5 5 6 8 9 10 9 9 8 7 7 7 6 6 6 6 5 4 3 3 2 2 2 3 6 9 10 8 7 6 5 5 5 6 7 7 7 2 -1 2 6 9 11 11 10 6 5 5 6 7 9 10 12 13 13 11 10 11 12 11 10 10 9 8 7 5 5 4 4 5 5 5 5 5 5 5 5 5 5 5 5 nan
nan 3 1 1 2 4 7 10 10 8 6 5 5 6 6 7 8 8 7 5 5 4 5 7 8 10 10 10 9 8 7 7 6 6 6 6 5 4 3 2 2 1 2 3 5 8 8 8 7 6 6 5 5 6 6 7 6 7 2 -0 4 8 10 11 10 9 7 6 6 6 7 7 8 11 12 12 11 10 11 13 12 11 10 9 8 6 5 5 4 4 4 4 4 5 5 5 5 5 5 5 5 5 nan
nan 4 2 0 1 4 9 12 10 8 5 5 5 5 6 7 7 7 5 4 4 4 6 7 8 10 10 9 8 7 7 6 6 6 5 5 4 3 2 1 1 1 3 5 8 11 11 6 5 5 6 5 6 7 7 7 6 5 1 2 6 9 11 11 9 7 7 7 6 6 6 6 7 8 9 10 10 9 10 11 10 9 8 8 6 5 5 4 4 4 4 4 4 4 4 4 5 5 5 5 5 5 nan
nan 2 2 2 4 7 11 13 11 8 6 6 6 6 6 7 7 6 4 4 4 5 6 7 8 9 9 8 7 7 6 6 6 5 5 4 3 2 1 0 1 3 6 8 10 11 11 6 5 5 6 7 6 7 8 7 6 2 1 5 8 11 12 11 9 7 7 7 7 7 6 5 6 7 7 7 7 7 8 8 7 6 6 5 5 4 4 4 4 4 4 3 4 4 4 4 4 4 5 5 5 5 nan
nan 2 3 6 8 10 13 13 11 8 7 7 6 6 7 7 6 5 4 4 4 5 5 7 8 8 8 7 6 6 5 5 5 5 4 3 2 1 0 1 3 5 9 11 10 8 7 6 6 6 6 7 7 7 9 7 4 -0 2 8 10 12 12 11 9 7 7 7 7 7 6 7 7 7 7 6 5 5 5 5 5 4 4 3 3 4 4 4 4 4 3 3 4 4 4 4 4 4 5 5 5 5 nan
nan 3 6 8 9 10 12 12 10 8 8 7 7 7 7 7 7 5 4 4 4 5 6 6 7 7 6 5 3 1 0 1 3 3 3 3 2 1 1 2 4 7 9 10 8 7 7 7 7 7 6 7 7 7 9 6 2 -1 4 10 12 12 12 11 9 7 7 7 7 7 8 9 9 9 8 6 4 3 3 3 3 3 3 3 3 3 3 3 4 4 4 4 4 4 4 5 5 5 5 5 5 5 nan
nan 3 6 7 8 9 10 10 9 8 8 8 8 8 8 8 7 6 5 5 5 5 6 6 6 6 5 2 -2 -5 -4 -2 -1 0 2 2 2 1 1 4 6 8 8 7 7 6 7 7 7 7 7 7 8 7 8 5 1 -0 6 12 12 12 12 11 9 8 6 6 6 7 8 9 9 8 7 5 4 3 3 3 3 3 3 3 3 3 3 3 4 4 4 4 4 5 5 5 5 5 5 5 6 6 nan
nan 3 4 6 7 7 8 8 8 8 8 9 9 9 9 8 7 6 5 5 5 5 6 6 5 5 3 1 -4 -7 -2 -0 -1 -0 1 3 3 3 3 6 7 8 7 7 7 7 7 7 7 7 7 7 8 8 7 3 -0 3 10 13 13 12 12 11 10 8 7 6 7 7 7 7 7 7 6 4 3 3 3 3 3 3 4 4 4 3 3 3 4 4 4 5 5 5 5 5 6 6 6 6 6 6 nan
nan 3 4 4 5 6 6 6 7 8 8 9 10 10 9 8 7 6 6 6 6 6 6 6 5 4 2 -0 -4 -4 2 4 3 3 3 5 5 5 5 6 7 7 7 7 7 7 7 8 8 7 7 8 8 8 6 1 1 5 12 15 14 13 11 10 9 8 8 7 7 7 6 6 5 5 5 4 4 3 3 3 4 4 4 4 4 4 4 4 4 5 5 5 5 6 6 6 6 7 7 6 6 6 nan
nan 0 1 1 3 3 3 5 6 7 7 7 6 5 6 5 5 5 6 5 6 6 6 5 4 3 2 -1 -0 2 4 6 5 5 6 6 7 7 6 6 7 7 7 7 7 7 8 8 8 8 8 8 8 8 5 1 1 7 14 17 16 14 12 10 10 9 8 8 7 6 4 4 4 4 4 4 4 4 4 4 4 4 4 4 5 5 5 5 5 5 6 6 6 7 7 7 7 7 7 7 7 7 nan
nan 0 -0 -1 -0 -1 -2 2 4 6 7 4 -0 -1 1 1 3 4 3 3 4 6 5 3 2 3 4 3 5 6 5 6 6 6 7 6 6 6 6 6 7 7 7 7 7 7 8 8 8 8 8 8 8 7 4 0 2 9 16 19 18 15 13 12 11 10 9 7 6 5 3 3 3 3 3 4 4 4 4 4 4 4 4 4 5 5 6 6 6 6 6 6 7 7 8 8 8 8 7 7 7 7 nan
nan 4 3 2 0 -1 -2 1 3 5 8 4 -2 -3 0 1 3 3 0 1 4 6 4 1 2 4 6 8 7 6 5 6 6 5 6 6 6 6 7 7 7 7 7 7 7 7 7 7 8 8 8 8 7 6 -0 -2 5 12 17 19 18 16 14 12 12 11 9 7 6 4 3 3 3 3 3 4 4 4 4 4 4 4 5 5 5 5 6 6 6 6 6 7 7 8 8 8 8 7 7 7 7 7 nan
nan 6 6 5 4 3 3 4 4 6 9 5 -1 -0 3 6 6 5 2 4 7 8 4 1 3 5 7 9 8 7 5 6 5 5 6 6 6 7 7 7 7 7 7 7 7 7 7 7 7 8 7 9 8 6 -1 -1 7 12 17 18 16 14 13 12 11 10 8 6 5 4 3 3 3 3 3 4 4 4 4 5 5 5 5 5 5 6 6 6 6 7 7 7 7 8 8 8 7 7 7 7 7 6 nan
nan 7 7 7 7 6 7 5 6 7 9 7 2 3 5 8 8 6 5 7 9 9 6 3 3 5 7 8 8 7 7 6 5 5 6 6 6 6 7 7 7 7 7 7 7 7 7 7 7 8 7 8 7 5 -1 -0 6 12 17 18 15 13 11 10 9 8 6 5 4 3 3 3 3 3 3 4 4 4 5 5 5 6 6 6 6 6 6 6 6 6 7 7 7 8 8 7 7 7 7 6 6 6 nan
nan 7 7 7 7 7 8 6 6 7 7 8 5 6 6 8 8 7 6 7 8 9 8 6 5 6 7 8 7 7 7 6 6 5 6 7 7 7 7 7 7 7 7 7 7 7 7 7 7 8 8 7 6 4 -1 -1 6 11 17 19 16 13 10 8 7 6 5 4 3 3 3 3 4 4 4 4 4 5 5 6 6 6 6 6 6 6 6 6 6 6 6 7 7 7 7 7 7 7 6 6 6 6 nan
nan 7 7 7 7 7 8 6 7 7 6 7 6 7 7 7 7 6 7 7 7 7 8 8 7 7 7 7 7 6 6 6 6 6 6 7 8 7 7 7 7 7 7 7 7 7 7 7 7 7 8 7 6 4 -2 -2 5 10 16 18 17 14 10 8 6 5 4 4 4 4 4 4 4 4 4 4 5 5 6 6 6 6 6 6 6 6 6 6 6 7 6 7 7 7 7 7 7 7 6 6 6 6 nan
nan 7 7 7 7 7 8 7 7 7 7 7 7 7 7 7 6 7 7 7 7 7 8 9 8 7 7 8 7 5 5 5 6 7 7 7 8 8 7 7 7 7 7 6 7 7 8 8 8 8 8 7 6 5 -3 -4 4 9 13 16 18 17 12 9 7 6 5 5 5 5 5 5 5 5 4 5 5 6 6 6 6 6 6 6 6 6 6 6 6 6 6 7 7 7 7 7 7 7 6 6 6 6 nan
nan 7 8 7 7 7 7 7 7 7 7 7 7 7 7 7 6 6 7 7 8 8 8 8 8 7 7 8 8 7 6 6 6 7 7 7 7 8 8 8 7 7 7 6 7 7 8 8 8 8 7 6 6 6 -1 -4 1 5 10 14 17 17 15 12 9 7 6 6 6 5 5 5 5 5 5 5 5 6 6 6 6 6 6 6 6 6 6 6 6 6 6 6 6 7 7 7 6 6 6 6 6 6 nan
nan 7 7 8 7 7 7 7 7 7 7 7 7 6 7 7 7 7 7 7 8 7 8 8 7 7 7 7 8 8 7 7 8 7 6 6 7 8 8 8 8 7 7 7 8 8 8 8 8 8 7 7 6 6 3 -2 -2 3 9 12 14 16 16 14 12 10 8 7 6 6 6 5 5 5 5 5 6 6 6 6 7 7 6 6 6 6 6 6 6 6 6 6 6 6 6 6 6 6 6 6 6 6 nan
nan 6 7 7 7 7 7 7 6 6 7 7 7 7 7 6 7 7 8 7 7 8 7 7 7 7 6 6 7 6 7 8 8 8 6 6 7 8 8 8 8 8 7 8 8 8 8 8 8 7 7 7 6 7 5 -0 -2 1 7 10 11 13 15 15 13 12 10 8 7 7 6 6 6 6 6 6 6 6 6 7 7 6 6 6 6 6 6 6 6 6 6 6 6 6 6 6 6 6 6 6 6 7 nan
nan 6 7 7 7 8 8 7 7 7 7 7 7 7 7 6 6 7 8 7 8 8 8 7 7 7 7 6 7 7 7 7 7 8 7 6 7 7 8 8 8 8 7 7 7 8 9 9 7 6 7 8 7 7 5 1 -3 -3 3 8 10 11 13 13 12 12 11 9 8 7 7 6 6 6 7 7 7 7 7 7 6 6 6 6 6 6 6 6 6 6 6 6 6 6 5 5 5 5 6 6 6 7 nan
nan 7 7 7 7 7 8 7 7 7 7 7 7 7 7 7 6 6 7 8 8 8 8 7 8 8 8 7 8 8 8 7 7 8 7 7 8 8 8 8 8 7 7 6 7 7 8 8 8 7 8 8 6 6 6 5 1 -4 -3 4 7 10 11 12 12 11 10 9 8 7 7 6 7 7 7 7 8 8 7 7 7 6 6 6 6 6 6 6 7 7 7 6 6 6 5 5 5 5 5 6 6 6 nan
nan 7 7 7 7 7 7 7 7 7 7 7 7 7 7 7 6 6 6 8 8 8 8 7 8 8 8 8 8 8 7 7 6 7 7 7 8 8 9 9 8 7 6 6 7 7 7 8 9 8 8 8 6 6 6 7 4 -0 -5 -2 3 7 10 11 12 12 11 10 9 8 7 7 7 8 8 8 8 8 8 7 7 6 6 6 6 6 6 6 7 7 7 7 6 6 6 5 5 5 5 6 6 6 nan
nan 7 7 7 7 7 7 7 7 8 7 8 8 7 7 7 6 6 6 7 8 8 8 7 7 7 7 8 8 8 7 7 6 6 7 7 8 9 9 9 8 8 6 6 7 7 7 8 9 8 8 8 7 6 5 7 5 3 -0 -0 1 3 7 10 11 13 13 12 10 9 8 8 8 8 8 9 9 8 8 8 7 7 6 6 6 6 6 6 7 7 7 7 7 6 6 5 5 5 5 5 6 6 nan
nan 7 7 7 7 7 7 7 7 7 7 8 9 9 8 7 6 7 7 8 9 8 8 7 6 6 7 7 7 7 7 7 6 6 6 7 8 8 8 8 8 8 8 8 8 7 7 8 8 9 9 8 7 6 5 6 6 6 5 2 -0 -1 1 6 8 11 14 14 12 11 10 9 9 8 9 8 8 8 8 8 7 7 7 6 6 6 6 6 7 7 7 8 8 7 7 6 6 5 5 5 6 6 nan
nan 7 7 7 7 7 7 7 8 8 7 7 9 11 9 7 6 7 8 9 9 9 9 7 7 7 7 7 6 6 7 7 7 7 8 9 9 8 8 8 7 7 8 9 9 8 7 7 8 9 9 8 7 6 6 6 7 7 7 3 -1 -2 -4 -2 3 7 12 14 14 13 11 9 9 9 8 8 8 8 8 7 7 7 6 6 6 6 6 6 7 7 7 8 8 8 7 7 6 6 6 6 6 6 nan
nan 6 7 7 7 6 7 8 8 9 7 6 7 10 10 7 8 8 8 9 8 7 8 8 8 7 7 6 6 6 7 7 7 7 8 9 9 8 8 9 7 7 7 9 9 9 8 8 7 8 8 8 7 7 7 6 7 6 6 5 3 1 -1 -2 -1 1 6 12 13 14 12 10 9 9 8 8 8 8 8 7 7 6 6 6 6 6 6 6 6 6 7 7 7 8 7 7 7 7 6 6 6 6 nan
nan 6 7 7 7 7 6 8 9 9 8 6 7 8 8 8 8 8 8 8 7 6 7 7 8 7 6 6 7 7 7 6 6 6 8 8 7 7 8 9 8 7 7 8 8 8 9 9 8 8 8 7 7 7 6 6 7 6 6 6 6 5 4 4 2 -1 0 6 10 12 12 11 9 8 8 7 7 8 8 7 7 7 6 6 5 5 6 6 6 6 6 7 7 7 7 7 7 7 7 7 7 6 nan
nan 6 7 8 8 7 7 8 9 7 7 7 7 8 7 7 8 8 8 8 7 6 6 6 7 7 6 6 7 8 8 6 6 6 8 7 7 7 8 8 8 7 8 8 8 8 9 9 8 8 8 7 7 7 6 7 8 6 5 7 7 7 7 7 5 1 -1 1 5 8 11 11 9 8 7 6 6 7 7 7 7 7 6 6 5 5 5 5 6 6 6 6 7 7 7 7 7 7 7 7 7 7 nan
nan 7 7 8 8 8 9 9 9 6 6 7 8 9 8 7 7 7 7 8 7 7 6 5 5 6 7 7 7 8 8 7 6 6 7 7 7 7 8 8 7 7 8 8 7 7 9 10 9 8 7 7 7 7 7 8 8 7 6 6 7 7 8 8 7 4 1 1 2 4 8 11 10 8 7 6 6 6 6 7 7 7 6 6 5 5 5 5 5 6 6 6 6 7 7 7 7 7 7 7 7 7 nan
nan 7 7 8 8 8 10 10 7 6 6 7 8 9 9 7 7 7 7 7 7 9 8 5 4 5 8 8 7 7 7 8 8 7 7 7 6 7 8 7 7 7 8 7 7 7 9 10 10 9 7 7 6 7 8 9 8 6 6 7 8 8 8 9 8 5 4 4 3 2 5 9 10 9 8 6 6 5 5 6 7 7 7 6 6 5 5 5 5 5 5 6 6 6 7 7 7 7 7 7 7 7 nan
nan 6 7 8 8 9 10 10 7 5 6 7 8 8 8 7 7 8 7 7 7 9 10 7 5 4 6 8 8 7 7 7 8 9 8 7 7 7 7 7 7 7 8 7 6 7 9 10 10 9 9 8 7 7 8 8 7 6 6 8 9 8 9 8 7 6 6 6 5 3 3 6 8 9 8 7 6 5 5 6 6 7 7 6 6 5 5 5 5 5 5 5 5 6 6 6 6 6 6 7 7 7 nan
nan 7 6 7 8 9 10 9 8 6 6 7 8 8 8 8 7 7 8 7 7 7 10 10 8 5 5 7 8 8 7 7 8 9 9 8 8 7 6 6 7 7 8 8 7 7 8 9 9 9 9 9 9 9 7 7 7 6 6 8 9 9 9 7 6 7 8 8 7 5 4 3 5 7 8 6 5 5 5 5 6 7 7 6 6 5 5 5 5 5 5 5 5 5 6 6 6 6 6 6 6 7 nan
nan 7 7 7 7 9 9 8 7 7 7 8 8 7 7 8 8 7 7 7 7 7 9 10 9 7 6 7 8 8 7 8 8 9 8 8 9 9 6 5 7 7 7 7 7 8 8 9 9 8 8 9 10 10 9 8 7 5 5 7 8 10 9 7 6 7 8 8 8 7 6 3 2 3 5 4 3 3 4 5 6 6 7 6 6 5 5 4 4 4 4 5 5 5 5 5 6 6 6 6 6 6 nan
nan 7 8 8 8 9 9 7 6 6 8 9 9 8 7 8 8 7 7 7 7 7 7 9 10 8 6 6 7 8 8 8 8 10 9 8 9 10 7 5 7 8 7 7 8 8 8 9 8 8 7 8 9 10 11 10 7 5 5 6 7 10 9 7 7 7 7 6 7 9 9 5 2 1 1 1 1 1 3 5 6 6 6 6 5 5 5 4 4 4 4 4 5 5 5 5 6 6 6 6 6 6 nan
nan 7 8 9 9 10 9 7 6 6 8 9 8 8 7 8 8 8 7 7 7 7 6 7 9 10 9 6 6 7 8 8 9 10 9 9 10 10 8 6 8 9 8 8 8 8 9 8 7 7 7 7 8 8 11 11 9 7 7 7 6 9 10 8 7 6 5 4 6 8 9 7 5 2 1 1 1 2 5 6 6 5 5 5 5 5 5 5 5 4 4 5 4 5 5 5 6 6 6 6 6 6 nan
nan 7 8 9 9 9 9 7 5 7 8 8 8 7 6 7 8 9 8 7 8 8 7 7 6 9 11 9 7 7 8 9 9 9 9 9 10 10 8 6 7 8 8 9 9 8 8 7 7 7 8 7 7 8 9 10 9 8 8 8 8 9 9 8 7 5 3 4 7 8 8 8 6 2 3 4 5 7 7 6 6 5 5 5 5 5 5 5 6 6 5 5 5 5 5 5 5 6 6 6 6 6 nan
nan 6 9 10 9 9 10 8 4 6 8 8 8 8 6 4 6 7 6 6 8 9 9 8 7 6 8 9 8 8 8 9 9 9 8 8 8 8 8 7 6 7 8 9 10 9 7 6 6 7 8 8 8 8 8 9 8 8 8 9 9 10 9 7 6 4 3 5 8 8 5 6 6 4 4 6 7 8 8 6 6 6 6 5 5 6 5 5 6 7 7 6 6 5 5 5 5 6 6 6 6 6 nan
nan 6 8 11 11 9 10 10 6 6 7 7 8 10 9 7 6 5 4 2 4 8 9 9 10 8 5 5 7 8 9 10 9 8 6 5 6 6 7 7 7 7 8 9 10 11 9 6 6 6 7 8 8 8 8 8 8 8 8 8 9 11 10 8 6 3 4 7 8 7 5 4 5 5 5 6 7 8 8 7 7 7 7 6 6 6 5 5 6 8 9 8 7 7 6 6 6 6 6 6 7 7 nan
nan 5 6 9 11 9 10 10 6 6 7 7 7 9 10 9 8 8 7 2 -1 1 6 9 12 11 6 4 6 9 10 9 8 5 5 5 4 4 6 8 8 9 9 9 10 10 10 8 8 7 6 7 8 8 8 8 8 7 8 8 8 11 11 9 7 6 8 9 7 6 6 4 4 5 6 7 7 7 7 7 8 9 8 6 6 6 5 5 7 8 9 9 9 8 8 7 7 6 7 7 8 8 nan
nan 6 6 6 9 9 11 10 7 6 8 9 9 8 10 10 8 9 14 9 -0 -4 -0 5 10 12 9 6 7 11 11 9 6 -0 3 8 6 4 3 6 8 9 10 10 10 10 10 10 10 9 6 5 6 8 8 8 9 7 7 8 8 9 9 9 9 10 10 10 9 8 7 5 3 5 7 7 7 7 7 7 7 8 8 7 7 7 9 9 8 9 10 10 10 10 10 9 8 8 8 9 9 10 nan
nan 5 6 6 7 9 11 12 8 6 7 9 11 10 13 14 10 8 14 17 9 2 -3 -1 5 9 11 9 9 13 13 8 6 0 2 7 7 6 5 5 6 8 10 8 8 8 10 12 13 14 10 6 5 6 7 8 9 8 7 7 8 8 8 8 10 11 11 11 10 10 9 6 5 5 7 8 7 6 6 6 7 7 7 8 8 9 10 11 12 11 10 11 11 11 10 10 10 10 10 11 11 12 nan
nan 4 3 4 6 7 10 12 11 8 5 7 10 10 11 13 11 8 9 13 13 9 4 1 1 3 8 9 9 14 14 9 7 3 2 6 7 7 7 7 6 7 8 7 7 8 9 11 13 16 17 12 7 6 6 6 8 8 9 8 8 8 7 8 9 10 10 10 10 10 9 8 8 8 9 8 7 6 6 6 6 6 7 8 8 9 9 9 10 9 9 10 12 13 11 11 11 12 12 12 12 12 nan
nan 6 2 0 4 6 8 10 11 10 6 6 8 10 11 11 9 8 7 6 7 8 8 7 3 -0 3 7 7 10 12 11 9 5 4 5 6 5 6 8 7 6 7 8 8 11 13 14 13 13 16 16 12 8 6 6 6 7 9 9 7 7 8 9 9 9 9 10 10 11 10 9 9 10 9 9 9 8 8 7 6 5 6 8 8 9 11 11 9 5 4 6 10 14 14 13 13 13 12 13 12 11 nan
nan 7 5 1 1 3 8 9 8 9 8 7 8 10 12 12 9 8 9 7 5 3 4 7 7 1 2 7 6 7 10 12 9 8 5 4 5 2 3 6 7 7 8 9 8 8 14 20 15 12 14 15 12 10 9 7 5 6 8 9 7 6 7 8 8 8 8 8 10 11 11 10 10 11 8 7 8 9 9 9 7 6 6 7 8 9 12 11 6 2 1 2 5 10 16 17 13 12 11 11 10 9 nan
nan 7 6 5 1 -1 3 7 7 7 8 7 8 9 10 12 12 10 10 11 9 5 0 5 9 3 -2 4 7 6 6 10 10 9 8 6 4 1 2 5 7 7 7 8 9 8 13 16 9 7 14 14 11 9 10 12 9 7 8 9 7 6 5 5 6 7 8 8 8 9 9 10 11 10 9 8 9 8 8 8 7 7 7 7 8 9 9 7 4 5 5 2 1 4 13 17 13 10 9 8 7 7 nan
nan 11 7 6 4 1 -0 4 8 7 8 7 8 8 9 10 12 13 13 12 11 10 3 4 11 11 0 -2 3 6 3 7 10 10 10 10 7 2 2 6 6 7 7 10 12 13 17 11 3 3 10 12 13 10 10 13 12 9 8 10 9 7 5 4 4 6 8 8 8 8 8 8 9 9 10 9 10 9 8 7 7 7 8 8 8 9 10 10 8 8 9 6 3 3 8 11 9 8 7 6 5 5 nan
nan 10 10 8 7 4 -0 1 6 7 8 8 8 8 10 9 10 11 15 14 11 12 7 2 7 14 10 1 2 7 6 4 6 10 11 11 11 7 3 3 5 9 12 14 13 13 14 9 4 4 5 9 12 13 13 14 13 11 10 10 9 9 9 6 4 5 7 8 8 7 8 8 8 9 10 10 9 10 10 8 8 8 8 8 8 9 11 12 13 13 14 14 11 7 6 8 7 6 5 5 4 5 nan
nan 6 9 9 9 7 4 1 2 4 7 9 8 9 10 9 8 8 11 14 13 13 9 2 4 7 13 8 5 8 10 5 4 8 9 10 12 11 8 4 3 5 10 10 9 8 8 9 8 8 4 6 9 11 13 14 13 12 12 11 10 9 10 10 7 6 8 8 8 7 6 8 9 9 9 9 9 10 11 9 9 8 8 8 9 9 9 8 10 13 13 12 10 7 6 7 7 6 5 5 4 5 nan
nan 5 9 11 10 8 7 6 4 4 6 8 8 10 10 10 8 7 8 12 13 12 10 6 3 2 10 12 7 7 11 7 4 5 7 7 11 13 11 7 6 5 4 4 4 5 6 8 9 11 8 8 8 9 10 11 12 12 13 13 11 8 8 11 10 8 10 11 8 7 6 7 8 9 8 9 9 9 10 10 9 8 8 9 10 10 9 6 4 4 3 2 3 5 7 8 7 7 6 6 5 5 nan
nan nan nan nan nan nan nan nan nan nan nan nan nan nan nan nan nan nan nan nan nan nan nan nan nan nan nan nan nan nan nan nan nan nan nan nan nan nan nan nan nan nan nan nan nan nan nan nan nan nan nan nan nan nan nan nan nan nan nan nan nan nan nan nan nan nan nan nan nan nan nan nan nan nan nan nan nan nan nan nan nan nan nan nan nan nan nan nan nan nan nan nan nan nan nan nan nan nan nan nan nan nan nan
CAPE
52 37 26 26 22 22 12 8 3 3 0 0 nan nan nan nan nan nan 0 4 4 8 10 10 5 5 0 nan nan nan nan nan 3 3 6 15 15 27 30 14 14 0 nan nan nan nan nan 0 0 0 0 nan nan nan nan nan nan nan nan nan nan nan nan 113 184 184 217 236 254 254 247 286 439 439 407 310 310 308 565 505 505 526 558 596 690 690 710 615 529 529 475 513 627 627 740 803 803 742 758 789 789 762 757
53 39 28 27 19 19 9 3 0 0 nan nan nan nan nan nan nan nan 2 8 8 14 11 6 0 0 nan nan nan nan nan 0 6 6 12 19 19 32 24 13 13 nan nan nan nan nan nan 0 nan nan nan nan nan nan nan nan nan nan nan nan nan nan nan 60 150 150 187 226 261 261 295 337 475 475 391 294 294 360 594 580 580 587 602 667 762 762 839 771 667 667 677 739 863 863 901 921 921 837 801 738 738 653 633
62 46 34 24 17 17 5 1 0 0 nan nan nan nan nan 0 0 4 11 15 15 11 7 1 nan nan nan nan nan nan nan 4 13 13 20 23 23 26 18 4 4 nan nan nan nan nan nan 1 nan nan nan nan nan nan nan nan nan nan nan nan nan nan nan 37 102 102 153 170 206 206 284 346 455 455 373 323 323 412 592 622 622 577 592 603 694 694 820 838 792 792 865 937 982 982 989 913 913 792 728 640 640 534 479
69 53 33 27 15 15 4 2 nan nan nan nan 2 2 8 13 13 22 31 18 18 11 4 nan nan nan nan nan nan nan nan 9 17 17 26 24 24 22 10 0 0 nan nan nan nan nan nan nan nan nan nan nan nan nan nan nan nan nan nan nan nan nan 18 18 67 67 107 106 141 141 195 312 440 440 407 399 399 493 527 559 559 521 480 514 625 625 755 825 935 935 939 902 910 910 840 762 762 643 553 470 470 446 452
78 59 39 31 12 12 3 1 nan nan 1 3 12 12 24 28 28 45 38 22 22 9 2 nan nan nan nan nan nan nan 2 16 28 28 32 26 26 21 5 nan nan nan nan nan nan nan nan 0 nan nan nan nan nan nan nan nan nan nan nan nan nan nan 36 25 68 68 82 108 139 139 206 424 496 496 470 436 436 433 417 398 398 351 354 430 533 533 634 769 835 835 877 840 784 784 656 584 584 498 394 368 368 359 338
71 56 47 31 12 12 5 0 4 4 12 20 34 34 35 45 45 50 38 25 25 8 0 nan nan nan nan nan nan nan 4 30 34 34 32 22 22 10 1 nan nan nan nan nan 1 1 1 3 nan nan nan nan nan nan nan nan nan nan nan nan nan 5 60 44 59 59 110 126 157 157 241 505 558 558 493 412 412 336 275 240 240 216 239 356 450 450 515 593 669 669 721 686 607 607 509 417 417 370 322 297 297 262 232
70 62 59 34 17 17 12 14 23 23 33 43 51 51 47 47 47 46 34 22 22 4 nan nan nan nan nan nan nan nan 8 34 32 32 25 12 12 3 nan nan nan nan nan nan 2 2 1 nan nan nan nan nan nan nan nan nan nan nan nan nan nan 27 66 50 46 46 106 139 170 170 277 524 529 529 442 328 328 207 186 152 152 151 188 279 372 372 402 421 444 444 494 489 463 463 394 327 327 263 225 205 205 175 146
70 64 56 48 35 35 35 35 47 47 58 55 65 65 56 57 57 50 44 21 21 0 nan nan nan nan nan nan 1 1 29 37 29 29 17 5 5 nan nan nan nan nan nan nan nan nan nan nan nan nan nan nan nan nan nan nan nan nan nan nan nan 3 62 71 33 33 101 133 162 162 249 426 421 421 344 241 241 174 143 121 121 131 157 223 292 292 315 306 324 324 326 329 309 309 262 220 220 184 152 123 123 92 84
73 59 58 57 57 57 46 54 67 67 72 70 76 76 69 64 64 56 44 16 16 nan nan nan nan nan nan nan 14 14 46 41 27 27 10 0 0 nan nan nan nan nan nan nan nan nan nan nan nan nan nan nan nan nan nan nan nan nan nan nan nan nan 65 73 44 44 94 140 169 169 218 353 321 321 242 222 222 194 133 130 130 124 146 186 229 229 236 246 241 241 217 216 207 207 173 153 153 140 113 87 87 52 42
68 67 67 73 66 66 55 65 79 79 94 79 80 80 74 71 71 63 45 10 10 nan nan nan nan nan nan 5 34 34 60 36 16 16 4 nan nan nan nan nan nan nan nan nan nan nan nan nan nan nan nan nan nan nan nan nan nan nan nan nan nan 24 92 63 44 44 105 155 208 208 303 361 351 351 282 255 255 230 168 121 121 132 157 175 179 179 166 158 152 152 160 135 135 135 122 95 95 86 68 53 53 37 22
64 62 69 70 69 69 58 75 91 91 102 96 89 89 83 73 73 61 38 2 2 nan nan nan nan nan nan 19 54 54 55 27 10 10 0 nan nan nan nan nan nan nan nan nan nan nan nan nan nan nan nan nan nan nan nan nan nan nan nan nan nan 64 63 42 49 49 89 169 308 308 435 456 445 445 376 323 323 269 205 129 129 138 162 151 127 127 127 104 90 90 69 73 72 72 68 61 61 47 34 31 31 21 12
75 79 80 75 81 81 83 87 104 104 111 112 97 97 83 79 79 67 29 1 1 nan nan nan 0 0 5 33 60 60 44 19 4 4 nan nan nan nan nan nan nan nan nan nan nan nan nan nan nan nan nan nan nan nan nan nan nan nan nan nan nan 32 31 25 46 46 85 205 375 375 511 483 511 511 432 361 361 287 246 149 149 155 149 114 89 89 80 46 33 33 20 25 26 26 27 27 27 19 20 14 14 11 7
99 105 92 60 93 93 126 123 119 119 127 115 98 98 91 84 84 65 18 nan nan nan nan nan 6 6 25 55 60 60 28 9 nan nan nan nan nan nan nan nan nan nan nan nan nan nan nan nan nan nan nan nan nan nan nan nan nan nan nan 16 16 17 5 11 65 65 95 220 401 401 493 417 402 402 391 365 365 285 248 181 181 173 135 104 68 68 39 24 12 12 6 4 5 5 6 10 10 10 12 11 11 8 5
140 141 64 105 120 120 147 144 142 142 133 115 99 99 99 90 90 63 21 0 0 nan nan 0 22 22 51 60 37 37 8 nan nan nan nan nan nan nan nan nan nan nan nan nan nan nan nan nan nan nan nan nan nan nan nan nan nan nan nan 2 2 10 3 7 56 56 123 264 381 381 421 302 255 255 299 315 315 289 225 173 173 119 97 69 36 36 23 11 5 5 2 0 nan nan nan 1 1 1 3 4 4 5 2
128 51 93 123 148 148 177 164 154 154 138 120 105 105 104 95 95 68 24 1 1 nan nan 5 41 41 62 42 17 17 nan nan nan nan nan nan nan nan nan nan nan nan nan nan nan nan nan nan nan nan nan nan nan nan nan nan nan nan nan 0 0 1 1 8 51 51 140 243 311 311 303 211 143 143 204 260 260 222 179 105 105 70 52 40 24 24 16 9 3 3 nan nan nan nan nan nan nan nan nan 0 0 0 0
18 10 26 117 169 169 199 174 155 155 141 122 109 109 107 91 91 63 24 1 1 nan nan 7 34 34 48 27 2 2 nan nan nan nan nan nan nan nan nan nan nan nan nan nan nan nan nan nan nan nan nan nan nan nan nan nan nan nan 7 0 0 nan 0 9 59 59 179 199 215 215 190 123 136 136 152 208 208 157 99 67 67 47 31 26 20 20 11 5 4 4 0 0 nan nan nan nan nan nan nan nan nan nan nan
nan nan 1 118 152 152 181 185 165 165 149 128 115 115 108 92 92 64 19 0 0 nan nan 6 28 28 36 16 4 4 nan nan nan nan nan nan nan nan nan nan nan nan nan nan nan nan nan nan nan nan nan nan nan nan nan nan nan nan 12 nan nan nan 5 14 82 82 153 150 166 166 182 174 128 128 123 105 105 78 49 34 34 28 21 16 10 10 4 1 0 0 nan nan nan nan nan nan nan nan nan nan nan nan nan
nan nan 80 105 135 135 163 176 165 165 155 141 127 127 114 83 83 50 11 nan nan nan nan 1 13 13 24 11 0 0 nan nan nan nan nan nan nan nan nan nan nan nan nan nan nan nan nan nan nan nan nan nan nan nan nan nan nan nan 13 nan nan nan 5 19 65 65 140 123 157 157 193 163 121 121 77 56 56 35 26 22 22 19 12 5 1 1 nan nan nan nan nan nan nan nan nan nan nan nan nan nan nan nan nan
nan 21 67 95 121 121 138 159 170 170 158 168 142 142 110 74 74 34 2 nan nan nan nan nan 3 3 13 16 nan nan nan nan nan nan nan nan nan nan nan nan nan nan nan nan nan nan nan nan nan nan nan nan nan nan nan nan nan 1 6 nan nan nan 4 21 62 62 97 118 130 130 142 103 60 60 41 25 25 17 12 9 9 7 2 nan nan nan nan nan nan nan nan nan nan nan nan nan nan nan nan nan nan nan nan
nan 43 76 86 101 101 120 161 179 179 170 180 120 120 94 42 42 5 nan nan nan nan nan nan nan nan nan nan nan nan nan nan nan nan nan nan nan nan nan nan nan nan nan nan nan nan nan nan nan nan nan nan nan nan nan nan nan nan 8 nan nan 1 6 31 63 63 95 97 69 69 40 19 15 15 7 2 2 nan nan nan nan nan nan nan nan nan nan nan nan nan nan nan nan nan nan nan nan nan nan nan nan nan nan
38 27 26 68 88 88 103 152 169 169 152 160 58 58 44 15 15 0 nan nan nan nan nan nan nan nan nan nan nan nan nan nan nan nan nan nan nan nan nan nan nan nan nan nan nan nan nan nan nan nan nan nan nan nan nan nan nan nan 2 nan nan 3 7 35 75 75 92 79 48 48 20 8 3 3 1 nan nan nan nan nan nan nan nan nan nan nan nan nan nan nan nan nan nan nan nan nan nan nan nan nan nan nan nan
11 15 13 25 50 50 77 158 201 201 138 130 77 77 36 17 17 nan nan nan nan nan nan nan nan nan nan nan nan nan nan nan nan nan nan nan nan nan nan nan nan nan nan nan nan nan nan nan nan nan nan nan nan nan nan nan nan nan 1 0 0 8 18 39 67 67 80 52 31 31 15 5 0 0 nan nan nan nan nan nan nan nan nan nan nan nan nan nan nan nan nan nan nan nan nan nan nan nan nan nan nan nan nan
3 16 18 20 24 24 46 143 211 211 123 79 85 85 58 30 30 0 nan nan nan nan nan nan nan nan nan nan nan nan nan nan nan nan nan nan nan nan nan nan nan nan nan nan nan nan nan nan nan nan nan nan nan nan nan nan nan nan nan 2 2 8 25 43 62 62 45 29 15 15 8 2 nan nan nan nan nan nan nan nan nan nan nan nan nan nan nan nan nan nan nan nan nan nan nan nan nan nan nan nan nan nan nan
0 19 25 28 27 27 39 110 159 159 119 88 77 77 78 41 41 7 nan nan nan nan nan nan nan nan nan nan nan nan nan nan nan nan nan nan nan nan nan nan nan nan nan nan nan nan nan nan nan nan nan nan nan nan nan nan nan nan nan 1 1 8 20 31 37 37 29 16 8 8 3 nan nan nan nan nan nan nan nan nan nan nan nan nan nan nan nan nan nan nan nan nan nan nan nan nan nan nan nan nan nan nan nan
2 24 29 41 42 42 41 69 118 118 113 79 68 68 74 53 53 19 nan nan nan nan nan nan nan nan nan nan nan nan nan nan nan nan nan nan nan nan nan nan nan nan nan nan nan nan nan nan nan nan nan nan nan nan nan nan nan nan nan 0 0 5 10 18 17 17 12 7 3 3 0 nan nan nan nan nan nan nan nan nan nan nan nan nan nan nan nan nan nan nan nan nan nan nan nan nan nan nan nan nan nan nan nan
7 18 29 48 55 55 62 70 96 96 101 84 59 59 70 60 60 28 nan nan nan nan nan nan nan nan nan nan nan nan nan nan nan nan nan nan nan nan nan nan nan nan nan nan nan nan nan nan nan nan nan nan nan nan nan nan nan nan nan nan nan 4 6 7 10 10 6 2 0 0 nan nan nan nan nan nan nan nan nan nan nan nan nan nan nan nan nan nan nan nan nan nan nan nan nan nan nan nan nan nan nan nan nan
16 16 19 42 56 56 67 69 79 79 97 88 67 67 63 55 55 33 4 nan nan nan nan nan nan nan nan nan nan nan nan nan nan nan nan nan nan nan nan nan nan nan nan nan nan nan nan nan nan nan nan nan nan nan nan nan nan nan nan nan nan 2 3 1 2 2 3 0 nan nan nan nan nan nan nan nan nan nan nan nan nan nan nan nan nan nan nan nan nan nan nan nan nan nan nan nan nan nan nan nan nan nan nan
26 15 16 28 50 50 65 66 74 74 86 96 76 76 66 53 53 36 9 nan nan nan nan nan nan nan nan nan nan nan nan nan nan nan nan nan nan nan nan nan nan nan nan nan nan nan nan nan nan nan nan nan nan nan nan nan nan nan nan nan nan nan 0 nan nan nan nan nan nan nan nan nan nan nan nan nan nan nan nan nan nan nan nan nan nan nan nan nan nan nan nan nan nan nan nan nan nan nan nan nan nan nan nan
36 17 16 27 45 45 57 61 67 67 82 93 79 79 69 56 56 44 14 nan nan nan nan nan nan nan nan nan nan nan nan nan nan nan nan nan nan nan nan nan nan nan nan nan nan nan nan nan nan nan nan nan nan nan nan nan nan nan nan nan nan nan nan nan nan nan nan nan nan nan nan nan nan nan nan nan nan nan nan nan nan nan nan nan nan nan nan nan nan nan nan nan nan nan nan nan nan nan nan nan nan nan nan
46 31 25 23 32 32 48 54 56 56 73 96 77 77 62 59 59 52 21 nan nan nan nan nan nan nan nan nan nan nan nan nan nan nan nan nan nan nan nan nan nan nan nan nan nan nan nan nan nan nan nan nan nan nan nan nan nan nan nan nan nan nan nan nan nan nan nan nan nan nan nan nan nan nan nan nan nan nan nan nan nan nan nan nan nan nan nan nan nan nan nan nan nan nan nan nan nan nan nan nan nan nan nan
31 29 29 27 40 40 46 48 46 46 60 94 76 76 57 58 58 51 28 nan nan nan nan nan nan nan nan nan nan nan nan nan nan nan nan nan nan nan nan nan nan nan nan nan nan nan nan nan nan nan nan nan nan nan nan nan nan nan nan nan nan nan nan nan nan nan nan nan nan nan nan nan nan nan nan nan nan nan nan nan nan nan nan nan nan nan nan nan nan nan nan nan nan nan nan nan nan nan nan nan nan nan nan
15 23 28 30 35 35 45 45 37 37 51 76 74 74 56 43 43 50 31 0 0 nan nan nan nan nan nan nan nan nan nan nan nan nan nan nan nan nan nan nan nan nan nan nan nan nan nan nan nan nan nan nan nan nan nan nan nan nan nan nan nan nan nan nan nan nan nan nan nan nan nan nan nan nan nan nan nan nan nan nan nan nan nan nan nan nan nan nan nan nan nan nan nan nan nan nan nan nan nan nan nan nan nan
16 15 27 35 37 37 39 34 37 37 45 71 76 76 55 43 43 45 30 2 2 nan nan nan nan nan nan nan nan nan nan nan nan nan nan nan nan nan nan nan nan nan nan nan nan nan nan nan nan nan nan nan nan nan nan nan nan nan nan nan nan nan nan nan nan nan nan nan nan nan nan nan nan nan nan nan nan nan nan nan nan nan nan nan nan nan nan nan nan nan nan nan nan nan nan nan nan nan nan nan nan nan nan
28 26 28 29 36 36 28 25 35 35 45 65 72 72 61 48 48 40 30 5 5 nan nan nan nan nan nan nan nan nan nan nan nan nan nan nan nan nan nan nan nan nan nan nan nan nan nan nan nan nan nan nan nan nan nan nan nan nan nan nan nan nan nan nan nan nan nan nan nan nan nan nan nan nan nan nan nan nan nan nan nan nan nan nan nan nan nan nan nan nan nan nan nan nan nan nan nan nan nan nan nan nan nan
42 40 35 29 32 32 26 18 26 26 43 67 69 69 57 52 52 37 27 7 7 nan nan nan nan nan nan nan nan nan nan nan nan nan nan nan nan nan nan nan nan nan nan nan nan nan nan nan nan nan nan nan nan nan nan nan nan nan nan nan nan nan nan nan nan nan nan nan nan nan nan nan nan nan nan nan nan nan nan nan nan nan nan nan nan nan nan nan nan nan nan nan nan nan nan nan nan nan nan nan nan nan nan
59 49 39 29 27 27 32 19 21 21 35 60 70 70 61 52 52 36 24 6 6 nan nan nan nan nan nan nan nan nan nan nan nan nan nan nan nan nan nan nan nan nan nan nan nan nan nan nan nan nan nan nan nan nan nan nan nan nan nan nan nan nan nan nan nan nan nan nan nan nan nan nan nan nan nan nan nan nan nan nan nan nan nan nan nan nan nan nan nan nan nan nan nan nan nan nan nan nan nan nan nan nan nan
67 61 52 41 29 29 30 25 20 20 26 47 64 64 54 46 46 31 16 1 1 nan nan nan nan nan nan nan nan nan nan nan nan nan nan nan nan nan nan nan nan nan nan nan nan nan nan nan nan nan nan nan nan nan nan nan nan nan nan nan nan nan nan nan nan nan nan nan nan nan nan nan nan nan nan nan nan nan nan nan nan nan nan nan nan nan nan nan nan nan nan nan nan nan nan nan nan nan nan nan nan nan nan
80 74 63 51 34 34 35 29 15 15 21 44 56 56 47 41 41 25 5 nan nan nan nan nan nan nan nan nan nan nan nan nan nan nan nan nan nan nan nan nan nan nan nan nan nan nan nan nan nan nan nan nan nan nan nan nan nan nan nan nan nan nan nan nan nan nan nan nan nan nan nan nan nan nan nan nan nan nan nan nan nan nan nan nan nan nan nan nan nan nan nan nan nan nan nan nan nan nan nan nan nan nan nan
95 81 69 59 47 47 36 30 19 19 16 35 46 46 42 37 37 12 nan nan nan nan nan nan nan nan nan nan nan nan nan nan nan nan nan nan nan nan nan nan nan nan nan nan nan nan nan nan nan nan nan nan nan nan nan nan nan nan nan nan nan nan nan nan nan nan nan nan nan nan nan nan nan nan nan nan nan nan nan nan nan nan nan nan nan nan nan nan nan nan nan nan nan nan nan nan nan nan nan nan nan nan nan
108 96 76 61 54 54 43 32 27 27 22 29 37 37 30 20 20 1 nan nan nan nan nan nan nan nan nan nan nan nan nan nan nan nan nan nan nan nan nan nan nan nan nan nan nan nan nan nan nan nan nan nan nan nan nan nan nan nan nan nan nan nan nan nan nan nan nan nan nan nan nan nan nan nan nan nan nan nan nan nan nan nan nan nan nan nan nan nan nan nan nan nan nan nan nan nan nan nan nan nan nan nan nan
106 99 84 64 57 57 42 38 40 40 30 25 32 32 25 9 9 nan nan nan nan nan nan nan nan nan nan nan nan nan nan nan nan nan nan nan nan nan nan nan nan nan nan nan nan nan nan nan nan nan nan nan nan nan nan nan nan nan nan nan nan nan nan nan nan nan nan nan nan nan nan nan nan nan nan nan nan nan nan nan nan nan nan nan nan nan nan nan nan nan nan nan nan nan nan nan nan nan nan nan nan nan nan
119 97 87 73 60 60 45 45 45 45 37 24 30 30 20 1 1 nan nan nan nan nan nan nan nan nan nan nan nan nan nan nan nan nan nan nan nan nan nan nan nan nan nan nan nan nan nan nan nan nan nan nan nan nan nan nan nan nan nan nan nan nan nan nan nan nan nan nan nan nan nan nan nan nan nan nan nan nan nan nan nan nan nan nan nan nan nan nan nan nan nan nan nan nan nan nan nan nan nan nan nan nan nan
143 114 98 78 69 69 71 60 49 49 38 35 24 24 3 nan nan nan nan nan nan nan nan nan nan nan nan nan nan nan nan nan nan nan nan nan nan nan nan nan nan nan nan nan nan nan nan nan nan nan nan nan nan nan nan nan nan nan nan nan nan nan nan nan nan nan nan nan nan nan nan nan nan nan nan nan nan nan nan nan nan nan nan nan nan nan nan nan nan nan nan nan nan nan nan nan nan nan nan nan nan nan nan
162 121 103 78 63 63 65 71 59 59 50 39 23 23 0 nan nan nan nan nan nan nan nan nan nan nan nan nan nan nan nan nan nan nan nan nan nan nan nan nan nan nan nan nan nan nan nan nan nan nan nan nan nan nan nan nan nan nan nan nan nan nan nan nan nan nan nan nan nan nan nan nan nan nan nan nan nan nan nan nan nan nan nan nan nan nan nan nan nan nan nan nan nan nan nan nan nan nan nan nan nan nan nan
258 156 109 87 73 73 63 69 69 69 72 52 20 20 nan nan nan nan nan nan nan nan nan nan nan nan nan nan nan nan nan nan nan nan nan nan nan nan nan nan nan nan nan nan nan nan nan nan nan nan nan nan nan nan nan nan nan nan nan nan nan nan nan nan nan nan nan nan nan nan nan nan nan nan nan nan nan nan nan nan nan nan nan nan nan nan nan nan nan nan nan nan nan nan nan nan nan nan nan nan nan nan nan
324 248 130 91 82 82 70 75 76 76 94 67 26 26 0 nan nan nan nan nan nan nan nan nan nan nan nan nan nan nan nan nan nan nan nan nan nan nan nan nan nan nan nan nan nan nan nan nan nan nan nan nan nan nan nan nan nan nan nan nan nan nan nan nan nan nan nan nan nan nan nan nan nan nan nan nan nan nan nan nan nan nan nan nan nan nan nan nan nan nan nan nan nan nan nan nan nan nan nan nan nan nan nan
420 357 179 112 100 100 79 69 89 89 103 78 34 34 3 nan nan nan nan nan nan nan nan nan nan nan nan nan nan nan nan nan nan nan nan nan nan nan nan nan nan nan nan nan nan nan nan nan nan nan nan nan nan nan nan nan nan nan nan nan nan nan nan nan nan nan nan nan nan nan nan nan nan nan nan nan nan nan nan nan nan nan nan nan nan nan nan nan nan nan nan nan nan nan nan nan nan nan nan nan nan nan nan
471 380 259 145 120 120 95 84 98 98 107 83 50 50 12 nan nan nan nan nan nan nan nan nan nan nan nan nan nan nan nan nan nan nan nan nan nan nan nan nan nan nan nan nan nan nan nan nan nan nan nan nan nan nan nan nan nan nan nan nan nan nan nan nan nan nan nan nan nan nan nan nan nan nan nan nan nan nan nan nan nan nan nan nan nan nan nan nan nan nan nan nan nan nan nan nan nan nan nan nan nan nan nan
522 404 323 206 135 135 107 103 86 86 102 88 64 64 30 2 2 nan nan nan nan nan nan nan nan nan nan nan nan nan nan nan nan nan nan nan nan nan nan nan nan nan nan nan nan nan nan nan nan nan nan nan nan nan nan nan nan nan nan nan nan nan nan nan nan nan nan nan nan nan nan nan nan nan nan nan nan nan nan nan nan nan nan nan nan nan nan nan nan nan nan nan nan nan nan nan nan nan nan nan nan nan nan
634 530 439 266 188 188 131 118 105 105 111 98 70 70 47 12 12 nan nan nan nan nan nan nan nan nan nan nan nan nan nan nan nan nan nan nan nan nan nan nan nan nan nan nan nan nan nan nan nan nan nan nan nan nan nan nan nan nan nan nan nan nan nan nan nan nan nan nan nan nan nan nan nan nan nan nan nan nan nan nan nan nan nan nan nan nan nan nan nan nan nan nan nan nan nan nan nan nan nan nan nan nan nan
667 618 546 380 294 294 189 169 133 133 125 91 85 85 56 22 22 nan nan nan nan nan nan nan nan nan nan nan nan nan nan nan nan nan nan nan nan nan nan nan nan nan nan nan nan nan nan nan nan nan nan nan nan nan nan nan nan nan nan nan nan nan nan nan nan nan nan nan nan nan nan nan nan nan nan nan nan nan nan nan nan nan nan nan nan nan nan nan nan nan nan nan nan nan nan nan nan nan nan nan nan nan nan
734 717 611 510 366 366 276 232 185 185 105 94 83 83 63 37 37 4 nan nan nan nan nan nan nan nan nan nan nan nan nan nan nan nan nan nan nan nan nan nan nan nan nan nan nan nan nan nan nan nan nan nan nan nan nan nan nan nan nan nan nan nan nan nan nan nan nan nan nan nan nan nan nan nan nan nan nan nan nan nan nan nan nan nan nan nan nan nan nan nan nan nan nan nan nan nan nan nan nan nan nan nan nan
770 755 709 602 498 498 399 305 235 235 165 108 79 79 63 40 40 6 nan nan nan nan nan nan nan nan nan nan nan nan nan nan nan nan nan nan nan nan nan nan nan nan nan nan nan nan nan nan nan nan nan nan nan nan nan nan nan nan nan nan nan nan nan nan nan nan nan nan nan nan nan nan nan nan nan nan nan nan nan nan nan nan nan nan nan nan nan nan nan nan nan nan nan nan nan nan nan nan nan nan nan nan nan
773 792 776 666 584 584 479 384 338 338 260 147 85 85 67 47 47 18 nan nan nan nan nan nan nan nan nan nan nan nan nan nan nan nan nan nan nan nan nan nan nan nan nan nan nan nan nan nan nan nan nan nan nan nan nan nan nan nan nan nan nan nan nan nan nan nan nan nan nan nan nan nan nan nan nan nan nan nan nan nan nan nan nan nan nan nan nan nan nan nan nan nan nan nan nan nan nan nan nan nan nan nan nan
807 795 780 729 673 673 561 489 393 393 364 211 77 77 68 66 66 30 8 nan nan nan nan nan nan nan nan nan nan nan nan nan nan nan nan nan nan nan nan nan nan nan nan nan nan nan nan nan nan nan nan nan nan nan nan nan nan nan nan nan nan nan nan nan nan nan nan nan nan nan nan nan nan nan nan nan nan nan nan nan nan nan nan nan nan nan nan nan nan nan nan nan nan nan nan nan nan nan nan nan nan nan nan
809 795 748 792 768 768 676 569 468 468 419 237 88 88 68 72 72 57 33 4 4 nan nan nan nan nan nan nan nan nan nan nan nan nan nan nan nan nan nan nan nan nan nan nan nan nan nan nan nan nan nan nan nan nan nan nan nan nan nan nan nan nan nan nan nan nan nan nan nan nan nan nan nan nan nan nan nan nan nan nan nan nan nan nan nan nan nan nan nan nan nan nan nan nan nan nan nan nan nan nan nan nan nan
781 795 779 794 805 805 771 620 539 539 466 287 84 84 52 81 81 82 56 18 18 nan nan nan nan nan nan nan nan nan nan nan nan nan nan nan nan nan nan nan nan nan nan nan nan nan nan nan nan nan nan nan nan nan nan nan nan nan nan nan nan nan nan nan nan nan nan nan nan nan nan nan nan nan nan nan nan nan nan nan nan nan nan nan nan nan nan nan nan nan nan nan nan nan nan nan nan nan nan nan nan nan nan
787 770 784 766 805 805 775 651 589 589 483 282 146 146 48 63 63 94 63 35 35 5 nan nan nan nan nan nan nan nan nan nan nan nan nan nan nan nan nan nan nan nan nan nan nan nan nan nan nan nan nan nan nan nan nan nan nan nan nan nan nan nan nan nan nan nan nan nan nan nan nan nan nan nan nan nan nan nan nan nan nan nan nan nan nan nan nan nan nan nan nan nan nan nan nan nan nan nan nan nan nan nan nan
793 776 789 737 775 775 810 747 620 620 504 272 138 138 40 51 51 94 63 27 27 10 2 nan nan nan nan nan nan nan nan nan nan nan nan nan nan nan nan nan nan nan nan nan nan nan nan nan nan nan nan nan nan nan nan nan nan nan nan nan nan nan nan nan nan nan nan nan nan nan nan nan nan nan nan nan nan nan nan nan nan nan nan nan nan nan nan nan nan nan nan nan nan nan nan nan nan nan nan nan nan nan nan
859 809 790 769 777 777 782 751 655 655 560 265 60 60 33 38 38 56 55 27 27 2 nan nan nan nan nan nan nan nan nan nan nan nan nan nan nan nan nan nan nan nan nan nan nan nan nan nan nan nan nan nan nan nan nan nan nan nan nan nan nan nan nan nan nan nan nan nan nan nan nan nan nan nan nan nan nan nan nan nan nan nan nan nan nan nan nan nan nan nan nan nan nan nan nan nan nan nan nan nan nan nan nan
894 840 788 770 752 752 758 757 694 694 595 217 37 37 20 38 38 48 47 30 30 3 nan nan nan nan nan nan nan nan nan nan nan nan nan nan nan nan nan nan nan nan nan nan nan nan nan nan nan nan nan nan nan nan nan nan nan nan nan nan nan nan nan nan nan nan nan nan nan nan nan nan nan nan nan nan nan nan nan nan nan nan nan nan nan nan nan nan nan nan nan nan nan nan nan nan nan nan nan nan nan nan nan